Location: Unspecified
(0.0000°N, 0.0000°E)
Time: 17:24:29
(UTC+00:00)

X-37B - Pass Details

Date: 14 January 2021
Orbit: 383 x 391 km, 45.1° (Epoch: 22 January)

Event Time Altitude Azimuth Distance (km) Brightness Sun altitude
Exits shadow 05:15:34 14° 334° (NNW) 1,177 2.6 -12.4°
Maximum altitude 05:18:03 49° 47° (NE) 505 1.3 -11.9°
Drops below altitude 10° 05:21:08 10° 124° (SE) 1,405 4.8 -11.2°
Sets 05:23:14 0° 130° (SE) 2,258 6.1 -10.7°
